Vorticity
nan nan nan nan nan nan nan nan nan nan nan nan nan nan nan nan nan nan nan nan nan nan nan nan nan nan nan nan nan nan nan nan nan nan nan nan nan nan nan nan nan nan nan
nan 9 10 9 10 9 8 9 9 9 8 7 8 8 9 9 9 8 8 9 10 9 9 9 13 15 15 13 10 12 8 9 10 11 9 10 9 10 8 8 8 7 nan
nan 9 8 8 8 8 9 9 10 10 8 8 8 7 8 8 9 10 10 9 9 9 12 14 13 14 16 14 12 12 9 10 12 8 10 10 9 9 8 7 11 9 nan
nan 8 9 9 8 8 9 10 11 10 9 9 8 8 8 9 12 9 9 11 12 13 11 11 14 13 16 17 16 11 9 10 11 8 10 10 8 8 9 8 8 8 nan
nan 10 9 10 11 10 11 11 12 11 10 10 10 10 9 8 11 10 11 13 11 10 12 12 11 13 19 19 16 12 9 8 12 9 9 9 10 8 9 6 9 8 nan
nan 9 10 11 10 9 10 12 12 11 10 11 10 8 11 8 5 12 11 10 12 12 12 12 10 14 17 16 19 15 9 11 10 8 11 10 11 10 10 11 9 7 nan
nan 11 10 9 8 9 11 13 12 11 10 7 9 10 7 7 7 13 14 11 9 10 11 13 13 13 13 11 9 11 4 7 15 17 15 12 10 12 9 10 9 10 nan
nan 11 11 10 10 11 12 12 11 11 9 9 8 9 7 5 8 14 16 14 9 10 11 13 13 14 14 10 7 4 6 10 11 15 16 16 13 15 9 10 8 7 nan
nan 12 13 11 12 11 11 11 10 10 10 9 10 9 6 3 8 13 19 15 10 9 8 11 15 13 12 9 8 7 9 7 1 10 14 17 18 15 9 5 6 6 nan
nan 13 12 14 12 12 11 9 12 10 10 11 9 7 9 3 5 11 19 15 8 8 10 7 10 14 14 14 8 7 6 10 9 8 6 8 8 6 8 8 10 8 nan
nan 15 11 13 12 10 12 12 11 10 9 10 9 6 5 6 6 6 14 15 9 12 10 10 9 8 11 13 12 15 13 10 9 9 7 8 9 8 8 9 9 7 nan
nan 11 11 11 12 11 11 12 9 6 8 8 7 7 7 4 4 9 9 9 12 13 11 12 13 10 9 11 14 13 12 9 12 11 9 9 9 10 11 12 8 8 nan
nan 11 10 9 13 11 8 9 11 9 7 6 6 9 8 8 12 8 4 8 12 9 10 15 14 11 10 9 13 11 6 9 11 10 11 10 11 10 10 12 8 10 nan
nan 9 10 7 9 15 12 9 11 12 8 10 11 10 8 9 9 6 10 18 14 12 7 9 7 5 9 15 10 7 8 10 11 12 12 11 11 11 11 9 9 8 nan
nan 8 4 6 7 4 7 17 16 10 21 21 12 12 13 12 7 10 11 9 12 12 15 14 10 10 10 6 9 10 12 12 9 8 11 12 10 9 11 9 10 10 nan
nan 8 7 10 9 7 6 1 10 9 12 14 11 20 18 7 5 11 12 9 15 12 14 9 12 15 13 11 12 11 11 9 12 12 12 8 9 11 11 7 7 14 nan
nan 9 10 10 9 8 8 8 1 4 7 2 6 8 9 7 9 11 12 6 8 20 14 9 10 10 11 13 15 15 12 14 12 8 9 8 10 12 6 10 15 6 nan
nan 10 10 9 10 10 10 10 9 11 4 2 7 6 7 4 6 8 9 18 13 10 9 10 10 10 10 9 10 12 14 17 13 10 11 13 11 7 8 11 10 11 nan
nan 12 12 10 10 12 12 10 10 11 11 10 10 8 10 7 5 8 14 16 14 10 10 8 8 9 10 11 11 10 11 11 15 18 14 11 9 12 13 9 11 8 nan
nan 9 11 13 13 11 9 10 10 10 10 10 9 14 10 13 9 11 14 14 11 11 10 9 9 9 10 10 10 11 10 10 12 12 14 18 15 11 10 14 13 10 nan
nan 13 10 11 12 9 10 11 10 10 10 10 7 9 15 11 10 11 11 11 11 12 10 11 10 10 12 10 10 12 10 10 11 10 10 12 13 17 16 10 15 15 nan
nan 13 9 12 14 12 11 11 11 10 12 12 11 5 9 14 12 11 9 9 10 11 12 12 11 12 12 11 11 11 9 11 11 10 9 10 10 12 14 17 17 12 nan
nan 16 15 11 12 11 9 10 11 13 12 12 10 11 9 11 11 11 10 9 10 10 11 11 11 10 9 10 11 11 12 12 8 9 11 11 11 9 10 11 16 17 nan
nan 11 11 10 9 11 13 11 10 12 13 9 11 12 11 10 11 11 11 10 10 9 10 11 11 9 9 10 10 12 12 9 9 10 9 11 11 9 8 12 8 13 nan
nan 14 10 12 11 10 13 11 9 10 11 12 9 10 12 11 11 10 9 10 11 11 10 11 8 8 9 10 15 13 9 6 8 12 11 9 10 11 14 11 7 9 nan
nan nan nan nan nan nan nan nan nan nan nan nan nan nan nan nan nan nan nan nan nan nan nan nan nan nan nan nan nan nan nan nan nan nan nan nan nan nan nan nan nan nan nan
CAPE
1164 1076 1246 1505 1802 2403 2322 2406 2441 2352 2451 2632 2782 2472 2194 1630 1569 1894 2728 2845 2475 2722 3094 2376 2279 2566 1989 609 377 349 7 2 2 34 31 95 68 88 124 91 125 262 33
1464 2274 1871 1820 2036 2212 2463 2274 2407 2748 2753 3134 2956 2850 2453 2649 3092 3520 3280 2958 2528 2423 2344 2197 2204 2365 2243 1289 1179 438 5 0 28 29 57 54 37 166 98 81 62 154 148
1963 1812 2177 2829 3248 3619 3085 2928 2794 2829 2811 2933 2727 2983 3192 3529 3316 3041 2771 2614 2511 2224 2331 2366 2325 2436 2205 1725 1258 55 5 0 21 2 32 37 56 132 155 124 158 301 133
1606 1937 2552 2309 2537 2739 3024 3081 3094 3099 3103 3193 3228 3582 3504 2942 2623 2669 2343 2314 2542 2423 2168 2070 2045 2251 2213 1734 956 6 4 1 11 31 25 29 40 125 109 92 126 79 63
2375 2156 2353 2509 2546 2703 2800 2997 3042 3299 3384 3294 3728 3259 2798 2469 1096 742 1513 2036 2252 2396 2028 1793 1645 606 505 1229 118 9 7 0 12 24 34 18 43 69 92 47 82 108 158
2350 2515 2642 2959 2822 3145 3222 3292 3510 3667 3709 3473 2961 2682 1787 1134 0 0 0 2203 1937 1375 1208 1024 860 750 266 62 0 0 0 0 3 15 6 16 91 78 84 59 76 84 78
2664 2733 2999 3216 3290 3462 3610 3784 3907 3760 3296 3308 2502 1422 1060 547 0 0 0 1542 1432 1209 1162 1087 649 168 30 2 0 0 0 0 0 21 1 26 45 94 92 43 66 102 122
2843 2886 3008 3381 3428 3765 4133 4055 3847 3516 3329 2399 1421 1075 968 0 0 0 0 1472 1480 984 827 673 633 52 10 0 0 0 0 0 0 10 10 26 31 73 22 28 3 19 92
2830 3060 3365 3590 3818 4107 4031 3841 3394 3078 2189 1348 1147 796 541 4 0 0 0 1088 1249 729 557 67 313 19 0 0 0 0 0 0 0 0 0 0 1 0 1 50 18 29 78
3244 3369 3640 3877 4029 3909 3773 3879 3063 1903 1829 1263 795 116 1 15 1 1 0 691 789 469 225 5 0 0 0 0 1 0 0 0 0 0 0 0 0 0 0 103 61 67 71
3421 3779 3903 3825 3589 3699 3348 2729 2019 1786 1176 472 10 4 7 0 0 0 0 144 126 406 51 23 0 0 0 0 0 0 0 0 0 1 0 0 0 1 1 27 118 68 47
3564 3576 2939 2914 2703 2137 1793 1771 1614 1287 360 9 11 4 3 6 0 0 0 0 0 88 10 5 0 0 0 0 0 0 0 0 0 12 7 8 10 7 14 19 57 72 102
2990 2620 2069 1926 1967 1967 1731 1592 1423 1224 324 41 4 1 0 0 0 0 0 0 0 1 1 0 0 0 0 0 0 0 0 0 3 13 9 11 12 14 24 33 39 57 53
2129 1624 1232 787 1131 1260 1022 864 568 286 36 0 0 0 0 0 0 0 0 5 1 1 1 1 0 0 0 0 0 0 0 1 1 5 15 18 22 33 29 17 13 22 40
1090 1174 825 81 0 0 0 0 0 0 0 0 0 0 0 0 0 0 0 1 3 0 0 9 2 0 2 12 6 13 3 0 0 0 1 4 4 11 23 33 40 26 8
640 1027 331 8 0 0 0 0 2 0 0 0 0 0 0 0 0 0 0 0 0 0 2 10 10 11 4 3 11 85 63 0 0 0 0 5 3 6 30 38 58 60 36
432 525 178 0 0 0 0 0 0 0 0 0 0 0 0 0 0 0 0 0 0 0 8 6 7 7 7 8 10 12 10 12 6 0 0 0 14 68 32 26 34 11 44
186 17 50 12 0 0 0 0 0 0 0 0 0 0 0 0 0 0 0 0 6 2 6 4 6 7 6 6 6 7 5 8 16 2 3 24 21 22 26 19 7 2 9
6 27 191 70 12 0 0 0 0 0 0 0 0 0 0 0 0 0 0 0 3 4 3 3 4 4 6 6 8 7 5 4 2 12 11 15 2 5 29 17 3 0 0
89 71 14 17 12 0 0 0 0 0 0 0 0 0 0 0 0 0 0 0 0 0 0 2 5 8 7 7 9 11 8 4 6 5 3 11 15 7 7 16 18 2 0
6 3 0 15 6 1 0 0 0 0 0 0 0 0 0 0 0 0 0 0 0 1 2 4 5 5 6 5 5 4 6 10 6 6 6 4 3 7 17 0 13 22 0
16 2 2 0 2 0 0 0 0 0 0 0 0 0 0 0 2 2 3 3 6 12 11 11 6 9 6 3 7 4 4 8 9 7 5 3 5 5 2 7 4 5 1
1 4 4 0 0 0 0 0 0 0 0 0 0 0 0 3 4 7 6 3 5 2 5 8 8 8 7 8 7 9 5 10 10 7 7 8 6 4 3 4 3 16 9
0 0 0 0 0 0 0 0 0 0 0 0 0 0 3 5 4 0 5 4 5 7 6 4 5 5 7 7 3 2 5 8 7 6 7 6 8 10 6 5 6 2 14
0 0 0 0 0 0 0 0 0 0 0 0 4 6 6 6 8 7 6 4 3 5 7 7 7 7 7 8 9 1 0 0 0 0 1 6 9 5 6 2 3 5 2
0 0 0 0 0 0 0 0 0 0 1 5 5 7 6 7 4 4 4 5 4 3 6 7 5 4 5 7 6 0 0 0 0 0 0 4 6 5 0 3 4 7 5